Regional Weather Roundup
Issued by NWS

Home | Current Version | Previous Version | Text Only | Print | Product List | Glossary Off
Versions: 1 2 3 4 5 6 7 8 9 10 11 12 13 14 15 16 17 18 19 20 21 22 23 24 25 26 27 28 29 30 31 32 33 34 35 36 37 38 39 40 41 42 43 44 45 46 47 48 49 50

000
ASUS43 KDMX 070307
RWRIA

WEATHER ROUNDUP FOR IOWA
NATIONAL WEATHER SERVICE DES MOINES IA
1000 PM CDT WED MAY 06 2015

NOTE: "FAIR" INDICATES FEW OR NO CLOUDS BELOW 12,000 FEET WITH NO
SIGNIFICANT WEATHER AND/OR OBSTRUCTIONS TO VISIBILITY.

* - THESE STATIONS ARE NOT NWS STATIONS...THUS NOT UNDER NWS
QUALITY CONTROL.  THEY ALSO DO NOT REPORT WEATHER SUCH
AS PRECIPITATION OR FOG.

IAZ001>003-012>014-020>022-031>034-043>046-070400-
   NORTHWEST IOWA

CITY           SKY/WX    TMP DP  RH WIND       PRES   REMARKS
CARROLL *      CLOUDY    66  57  72 SE16G23   29.81S
CHEROKEE *     MOCLDY    66  61  82 SE16G24   29.77R
DENISON *      MOCLDY    66  61  82 SE20G26   29.76F
LE MARS *      CLOUDY    66  61  82 SE13G20   29.72S
ORANGE CITY *  HVY RAIN  63  61  94 SE18G25   29.74R
SHELDON *      CLOUDY    66 N/A N/A SE20G28   29.75R
SIOUX CITY     RAIN      66  60  81 S25G31    29.73R
SPENCER        CLOUDY    67  59  75 SE17G25   29.79S
STORM LAKE *   CLOUDY    64  59  82 SE21G28   29.80S
$$

IAZ055>058-069>071-079>083-090>094-070400-
   SOUTHWEST IOWA

CITY           SKY/WX    TMP DP  RH WIND       PRES   REMARKS
ATLANTIC *     PTCLDY    68  59  73 SE17G25   29.80F
AUDUBON *      CLEAR     66  59  77 SE10G18   29.82F
CLARINDA *     CLEAR     70  61  73 SE17G25   29.82S
COUNCIL BLFS * CLOUDY    66  64  94 SE22G31   29.77R
CRESTON *      CLEAR     66  61  82 SE17      29.85S
HARLAN  *      CLEAR     68  64  88 SE17G24   29.82S
LAMONI         PTCLDY    69  59  70 SE10      29.88S
RED OAK *      PTCLDY    68  61  77 SE18G26   29.79S
SHENANDOAH *   CLEAR     68  61  77 SE23G29   29.79R
$$

IAZ047>049-059>061-072>074-084-070400-
   CENTRAL IOWA

CITY           SKY/WX    TMP DP  RH WIND       PRES   REMARKS
AMES           PTCLDY    67  57  70 SE12      29.88S
ANKENY *       MOCLDY    68  59  73 SE8       29.89R
CHARITON *     MOCLDY    66  61  82 SE14      29.90S
DES MOINES     MOCLDY    69  58  67 SE13      29.88S
GRINNELL*      CLOUDY    66  61  82 SE8       29.94R
KNOXVILLE *    MOCLDY    68  57  68 SE10      29.90S
MARSHALLTOWN   MOCLDY    67  60  78 SE10      29.91S
PELLA *        MOCLDY    68  61  77 SE8       29.92F
PERRY *        CLOUDY    66  59  77 SE13      29.85F
$$

IAZ004>006-015-016-023>025-035-036-070400-
   NORTH CENTRAL IOWA

CITY           SKY/WX    TMP DP  RH WIND       PRES   REMARKS
ALGONA *       CLEAR     66  59  77 SE16      29.84F
CLARION *      CLEAR     66  59  77 SE16      29.87S
ESTHERVILLE    MOCLDY    64  57  78 SE22      29.80F
FORT DODGE *   CLEAR     66  57  72 SE12G21   29.86R
MASON CITY     PTCLDY    64  59  83 SE15      29.90S
FOREST CITY *  CLEAR     63  55  77 SE12      29.88S
IOWA FALLS *     N/A     66  57  72 SE13      29.91F
$$

IAZ007>011-017>019-026>030-037>042-050>054-066-070400-
   NORTHEAST IOWA

CITY           SKY/WX    TMP DP  RH WIND       PRES   REMARKS
CEDAR RAPIDS   MOCLDY    64  61  90 SE8       29.96R
CHARLES CITY * CLOUDY    64  64 100 SE15      29.93S
CLINTON *      PTCLDY    63  57  82 E7        30.03R
DECORAH *      CLOUDY    64  61  88 S12G17    29.96R
DUBUQUE        MOCLDY    64  58  80 CALM      30.00R
MONTICELLO *   CLOUDY    66  63  88 SE8       29.98S
OELWEIN *      CLOUDY    64  61  88 SE13      29.96S
WATERLOO       MOCLDY    67  59  75 S13       29.92S
$$

IAZ064-065-067-068-078-070400-
   EAST CENTRAL IOWA

CITY           SKY/WX    TMP DP  RH WIND       PRES   REMARKS
DAVENPORT      MOCLDY    67  59  75 SE7       30.00R
IOWA CITY      CLOUDY    64  61  90 E5        29.98R
MT. PLEASANT * MOCLDY    64  63  94 E6        29.97S
MUSCATINE *    PTCLDY    66  63  88 CALM      29.98S
QUAD CITIES    PTCLDY    65  60  84 E6        29.99R
$$

IAZ062-063-075>077-085>089-095>099-070400-
   SOUTHEAST IOWA

CITY           SKY/WX    TMP DP  RH WIND       PRES   REMARKS
BURLINGTON     MOCLDY    68  62  81 SE7       29.98R
FAIRFIELD *    CLOUDY    66  63  88 SE9       29.95S
FORT MADISON * MOCLDY    68  63  83 E8        29.98S
KEOKUK *       CLOUDY    68  63  83 SE8       29.96F
OSKALOOSA *      N/A     64  61  88 SE9       29.94S
CENTERVILLE *  CLEAR     64  61  88 E9        29.94S
OTTUMWA        PTCLDY    64  62  93 SE8       29.93S
WASHINGTON *   CLOUDY    66 N/A N/A SE8       29.96S
$$

ABBREVIATIONS USED IN REMARKS
   TC - TEMPERATURES IN CELSIUS
  WCI - WIND CHILL INDEX
   HX - HEAT INDEX
  VSB - VISIBILITY
$$




USA.gov is the U.S. government's official web portal to all federal, state and local government web resources and services.